Location: Central Coast
(33.3208°S, 151.2336°E)
Time: 06:46:22
(UTC+11:00)

Envisat - Pass Details

Date: 14 October 2017
Orbit: 764 x 766 km, 98.2° (Epoch: 12 December)

Event Time Altitude Azimuth Distance (km) Brightness Sun altitude
Rises 21:28:48 0° 169° (SSE) 3,262 6.5 -28.2°
Reaches altitude 10° 21:31:07 10° 168° (SSE) 2,329 5.7 -28.7°
Enters shadow 21:34:42 46° 170° (S) 1,032 3.7 -29.3°
